TimeEEST,TemperatureF,Dew PointF,Humidity,Sea Level PressureIn,VisibilityMPH,Wind Direction,Wind SpeedMPH,Gust SpeedMPH,PrecipitationIn,Events,Conditions,WindDirDegrees,DateUTC
12:20 AM,60.8,55.4,82,30.15,-9999.0,NW,3.5,-,N/A,,Clear,310,2013-10-14 21:20:00
12:50 AM,59.0,51.8,77,30.15,-9999.0,West,4.6,-,N/A,,Clear,280,2013-10-14 21:50:00
1:20 AM,57.2,51.8,82,30.15,-9999.0,WNW,2.3,-,N/A,,Clear,290,2013-10-14 22:20:00
1:50 AM,57.2,51.8,82,30.15,-9999.0,NW,2.3,-,N/A,,Clear,310,2013-10-14 22:50:00
2:20 AM,57.2,51.8,82,30.15,-9999.0,WNW,1.2,-,N/A,,Clear,290,2013-10-14 23:20:00
2:50 AM,55.4,51.8,88,30.15,-9999.0,Variable,1.2,-,N/A,,Clear,0,2013-10-14 23:50:00
3:20 AM,57.2,51.8,82,30.12,-9999.0,WNW,2.3,-,N/A,,Clear,300,2013-10-15 00:20:00
3:50 AM,55.4,50.0,82,30.12,-9999.0,NW,2.3,-,N/A,,Clear,310,2013-10-15 00:50:00
4:20 AM,55.4,51.8,88,30.12,-9999.0,WNW,4.6,-,N/A,,Clear,290,2013-10-15 01:20:00
4:50 AM,55.4,51.8,88,30.12,-9999.0,West,2.3,-,N/A,,Clear,280,2013-10-15 01:50:00
5:20 AM,55.4,50.0,82,30.12,-9999.0,WNW,4.6,-,N/A,,Clear,290,2013-10-15 02:20:00
5:50 AM,55.4,51.8,88,30.09,-9999.0,NW,2.3,-,N/A,,Clear,310,2013-10-15 02:50:00
6:20 AM,53.6,50.0,88,30.09,-9999.0,NW,1.2,-,N/A,,Clear,320,2013-10-15 03:20:00
6:50 AM,53.6,50.0,88,30.09,-9999.0,North,2.3,-,N/A,,Clear,10,2013-10-15 03:50:00
7:20 AM,59.0,50.0,72,30.09,-9999.0,Calm,Calm,-,N/A,,Clear,0,2013-10-15 04:20:00
7:50 AM,57.2,50.0,77,30.09,-9999.0,Variable,2.3,-,N/A,,Clear,0,2013-10-15 04:50:00
8:20 AM,59.0,51.8,77,30.12,-9999.0,West,3.5,-,N/A,,Clear,280,2013-10-15 05:20:00
8:50 AM,62.6,51.8,68,30.12,-9999.0,Variable,2.3,-,N/A,,Clear,0,2013-10-15 05:50:00
9:20 AM,66.2,53.6,64,30.12,-9999.0,Calm,Calm,-,N/A,,Clear,0,2013-10-15 06:20:00
9:50 AM,68.0,55.4,64,30.12,-9999.0,Calm,Calm,-,N/A,,Clear,0,2013-10-15 06:50:00
10:20 AM,69.8,55.4,60,30.12,-9999.0,Variable,1.2,-,N/A,,Clear,0,2013-10-15 07:20:00
10:50 AM,73.4,55.4,53,30.12,-9999.0,Variable,1.2,-,N/A,,Clear,0,2013-10-15 07:50:00
11:20 AM,73.4,53.6,50,30.09,-9999.0,Variable,1.2,-,N/A,,Clear,0,2013-10-15 08:20:00
11:50 AM,77.0,55.4,47,30.09,-9999.0,Variable,2.3,-,N/A,,Clear,0,2013-10-15 08:50:00
12:20 PM,78.8,55.4,44,30.09,-9999.0,SSE,5.8,-,N/A,,Clear,150,2013-10-15 09:20:00
12:50 PM,77.0,57.2,50,30.06,-9999.0,ESE,6.9,-,N/A,,Clear,120,2013-10-15 09:50:00
1:20 PM,77.0,57.2,50,30.06,-9999.0,South,6.9,-,N/A,,Clear,170,2013-10-15 10:20:00
1:50 PM,78.8,57.2,47,30.06,-9999.0,South,10.4,-,N/A,,Clear,180,2013-10-15 10:50:00
2:20 PM,78.8,57.2,47,30.04,-9999.0,South,12.7,-,N/A,,Clear,190,2013-10-15 11:20:00
2:50 PM,78.8,55.4,44,30.04,-9999.0,SSW,12.7,-,N/A,,Clear,210,2013-10-15 11:50:00
3:20 PM,78.8,55.4,44,30.01,-9999.0,SSW,12.7,-,N/A,,Clear,200,2013-10-15 12:20:00
3:50 PM,78.8,53.6,42,30.01,-9999.0,SSW,16.1,-,N/A,,Clear,200,2013-10-15 12:50:00
4:20 PM,77.0,57.2,50,30.01,6.2,SSW,15.0,-,N/A,,Partly Cloudy,210,2013-10-15 13:20:00
4:50 PM,75.2,59.0,57,30.01,-9999.0,SW,16.1,-,N/A,,Clear,220,2013-10-15 13:50:00
5:20 PM,75.2,60.8,61,30.01,-9999.0,SSW,15.0,-,N/A,,Clear,210,2013-10-15 14:20:00
5:50 PM,73.4,60.8,65,30.01,-9999.0,SSW,12.7,-,N/A,,Clear,210,2013-10-15 14:50:00
6:20 PM,71.6,59.0,64,30.01,-9999.0,SSW,12.7,-,N/A,,Clear,210,2013-10-15 15:20:00
6:50 PM,71.6,59.0,64,30.01,-9999.0,SSW,9.2,-,N/A,,Clear,210,2013-10-15 15:50:00
7:20 PM,71.6,60.8,69,30.01,-9999.0,SW,8.1,-,N/A,,Clear,220,2013-10-15 16:20:00
7:50 PM,69.8,60.8,73,30.01,-9999.0,SSW,8.1,-,N/A,,Clear,210,2013-10-15 16:50:00
8:20 PM,68.0,60.8,78,30.01,-9999.0,SW,4.6,-,N/A,,Clear,230,2013-10-15 17:20:00
8:50 PM,68.0,60.8,78,30.01,-9999.0,SW,4.6,-,N/A,,Clear,220,2013-10-15 17:50:00
9:20 PM,68.0,62.6,83,30.01,-9999.0,WSW,2.3,-,N/A,,Clear,250,2013-10-15 18:20:00
9:50 PM,68.0,60.8,78,30.01,-9999.0,Variable,2.3,-,N/A,,Clear,0,2013-10-15 18:50:00
10:20 PM,68.0,62.6,83,30.01,-9999.0,Variable,1.2,-,N/A,,Clear,0,2013-10-15 19:20:00
10:50 PM,68.0,60.8,78,29.98,-9999.0,Variable,1.2,-,N/A,,Clear,0,2013-10-15 19:50:00
11:20 PM,66.2,60.8,83,29.98,-9999.0,South,3.5,-,N/A,,Clear,180,2013-10-15 20:20:00
11:50 PM,66.2,60.8,83,29.98,-9999.0,SW,4.6,-,N/A,,Clear,220,2013-10-15 20:50:00